If you wish to contribute or participate in the discussions about articles you are invited to join SKYbrary as a registered user

 Actions

Dijon-Bourgogne Airport

From SKYbrary Wiki

LFSD
Airport
ICAO: LFSD – IATA: DIJ
Summary
Name Dijon-Bourgogne Airport
Region Europe
Territory France FR.gif
Location , Bourgogne
Serving Dijon
Elevation 221.285 m
726 ft
726 ft221.285 m
Type medium airport
Coordinates 47° 16' 8.00" N, 5° 5' 24.00" E
Runways
Designator Length Width Surface ROPS
2/20 1800 m5,905.512 ft
36 m118.11 ft
ASP /
18/36 2400 m7,874.016 ft
45 m147.638 ft
ASP /


METAR
Observation LFSD 210330Z AUTO 00000KT 0700 0500 R35/0600N FG VV/// 01/01 Q1009
Station Dijon
Date/Time 21 November 2019 03:30:00
Wind direction
Wind speed 00 kts
Lowest cloud amount n/a
Temperature 35°C
Dew point 0°C
Humidity 10%
QNH 1009 hPa
Weather condition n/a